�������l�o���
Date,Time,MP-1(��Sv/h),MP-2(��Sv/h),MP-3(��Sv/h),MP-4(��Sv/h),MP-5(��Sv/h),MP-6(��Sv/h),MP-7(��Sv/h),MP-8(��Sv/h),����,����(m/s),���J
2021/08/30,00:00,0.611,0.917,0.577,1.098,0.783,0.369,0.635,0.592,��,1.9,��
2021/08/30,00:10,0.611,0.916,0.575,1.099,0.782,0.369,0.635,0.592,��쐼,2.3,��
2021/08/30,00:20,0.612,0.915,0.576,1.100,0.784,0.368,0.633,0.593,��쐼,3.8,��
2021/08/30,00:30,0.611,0.914,0.575,1.099,0.782,0.368,0.634,0.592,��쐼,4.2,��
2021/08/30,00:40,0.609,0.916,0.576,1.097,0.783,0.367,0.634,0.592,��,3.3,��
2021/08/30,00:50,0.611,0.914,0.578,1.097,0.785,0.368,0.633,0.592,��,2.6,��
2021/08/30,01:00,0.610,0.914,0.577,1.099,0.783,0.367,0.634,0.593,��쐼,3.3,��
2021/08/30,01:10,0.611,0.916,0.574,1.099,0.782,0.368,0.634,0.592,��쐼,4.1,��
2021/08/30,01:20,0.611,0.915,0.575,1.098,0.783,0.369,0.633,0.593,��쐼,2.9,��
2021/08/30,01:30,0.612,0.915,0.577,1.099,0.784,0.369,0.633,0.592,��쐼,1.9,��
2021/08/30,01:40,0.613,0.915,0.578,1.100,0.783,0.369,0.634,0.592,��,2.3,��
2021/08/30,01:50,0.610,0.913,0.576,1.099,0.785,0.367,0.634,0.592,��,3.0,��
2021/08/30,02:00,0.612,0.915,0.576,1.100,0.785,0.367,0.635,0.592,��쐼,1.9,��
2021/08/30,02:10,0.611,0.916,0.577,1.097,0.782,0.368,0.635,0.591,��쐼,1.7,��
2021/08/30,02:20,0.612,0.913,0.576,1.099,0.782,0.367,0.633,0.592,��쐼,3.4,��
2021/08/30,02:30,0.611,0.913,0.576,1.099,0.784,0.369,0.634,0.591,��쐼,4.9,��
2021/08/30,02:40,0.610,0.914,0.575,1.097,0.783,0.368,0.633,0.591,��쐼,4.9,��
2021/08/30,02:50,0.611,0.915,0.578,1.097,0.782,0.368,0.634,0.592,��쐼,3.9,��
2021/08/30,03:00,0.610,0.913,0.576,1.099,0.782,0.368,0.635,0.589,�쐼,3.8,��
2021/08/30,03:10,0.610,0.913,0.578,1.098,0.783,0.367,0.633,0.590,�쐼,3.8,��
2021/08/30,03:20,0.609,0.913,0.574,1.097,0.780,0.367,0.634,0.591,�쐼,3.9,��
2021/08/30,03:30,0.611,0.914,0.575,1.099,0.782,0.367,0.635,0.591,��쐼,4.3,��
2021/08/30,03:40,0.609,0.914,0.576,1.100,0.781,0.368,0.633,0.592,��쐼,5.7,��
2021/08/30,03:50,0.609,0.913,0.576,1.098,0.783,0.367,0.633,0.591,��쐼,6.7,��
2021/08/30,04:00,0.610,0.913,0.575,1.097,0.782,0.368,0.636,0.591,��,6.6,��
2021/08/30,04:10,0.610,0.915,0.575,1.096,0.782,0.367,0.635,0.592,��,3.4,��
2021/08/30,04:20,0.610,0.914,0.576,1.097,0.781,0.367,0.634,0.593,��쐼,2.8,��
2021/08/30,04:30,0.610,0.914,0.576,1.098,0.783,0.369,0.633,0.592,��쐼,5.2,��
2021/08/30,04:40,0.609,0.913,0.575,1.098,0.781,0.368,0.635,0.592,��쐼,5.9,��
2021/08/30,04:50,0.610,0.915,0.576,1.099,0.780,0.367,0.634,0.592,��쐼,5.1,��
2021/08/30,05:00,0.610,0.912,0.577,1.098,0.782,0.367,0.635,0.591,��쐼,4.8,��
2021/08/30,05:10,0.609,0.912,0.576,1.099,0.781,0.368,0.634,0.591,��쐼,5.2,��
2021/08/30,05:20,0.611,0.914,0.576,1.097,0.781,0.367,0.634,0.594,��쐼,6.3,��
2021/08/30,05:30,0.610,0.913,0.576,1.097,0.782,0.369,0.634,0.592,��쐼,6.6,��
2021/08/30,05:40,0.609,0.916,0.576,1.097,0.780,0.368,0.634,0.591,��쐼,5.9,��
2021/08/30,05:50,0.610,0.911,0.576,1.094,0.782,0.367,0.635,0.591,�쐼,5.4,��
2021/08/30,06:00,0.608,0.915,0.575,1.097,0.783,0.366,0.636,0.592,�쐼,5.1,��
2021/08/30,06:10,0.609,0.914,0.576,1.098,0.782,0.367,0.635,0.592,�쐼,5.6,��
2021/08/30,06:20,0.608,0.914,0.575,1.096,0.780,0.368,0.635,0.592,�쐼,7.4,��
2021/08/30,06:30,0.611,0.914,0.576,1.100,0.781,0.366,0.635,0.591,��쐼,7.7,��
2021/08/30,06:40,0.609,0.912,0.574,1.098,0.782,0.367,0.638,0.592,��쐼,7.7,��
2021/08/30,06:50,0.611,0.913,0.576,1.097,0.780,0.368,0.634,0.591,��쐼,4.6,��
2021/08/30,07:00,0.611,0.911,0.576,1.099,0.781,0.368,0.637,0.592,��,2.0,��
2021/08/30,07:10,0.612,0.917,0.576,1.096,0.781,0.368,0.636,0.592,��,1.2,��
2021/08/30,07:20,0.610,0.913,0.573,1.097,0.781,0.367,0.636,0.592,-,CALM,��
2021/08/30,07:30,0.610,0.913,0.576,1.096,0.781,0.369,0.635,0.591,��,1.7,��
2021/08/30,07:40,0.610,0.911,0.575,1.099,0.781,0.367,0.636,0.589,��쐼,2.0,��
2021/08/30,07:50,0.610,0.913,0.577,1.098,0.782,0.369,0.636,0.593,��쐼,2.6,��
2021/08/30,08:00,0.611,0.910,0.576,1.097,0.782,0.369,0.636,0.591,��,2.5,��
2021/08/30,08:10,0.611,0.912,0.575,1.097,0.780,0.368,0.637,0.592,��쓌,3.4,��
2021/08/30,08:20,0.610,0.913,0.576,1.098,0.781,0.369,0.636,0.590,��쓌,1.9,��
2021/08/30,08:30,0.612,0.910,0.575,1.099,0.781,0.369,0.634,0.590,��쓌,0.9,��
2021/08/30,08:40,0.611,0.913,0.575,1.098,0.783,0.368,0.635,0.589,��,1.5,��
2021/08/30,08:50,0.611,0.910,0.573,1.098,0.781,0.368,0.635,0.592,�쓌,1.1,��
2021/08/30,09:00,0.612,0.910,0.573,1.099,0.784,0.369,0.636,0.589,��쓌,1.9,��
2021/08/30,09:10,0.611,0.910,0.576,1.097,0.781,0.369,0.637,0.590,�쐼,1.1,��
2021/08/30,09:20,0.608,0.911,0.575,1.098,0.783,0.369,0.636,0.590,�k��,1.1,��
2021/08/30,09:30,0.610,0.910,0.573,1.098,0.783,0.367,0.637,0.591,�k�k��,2.6,��
2021/08/30,09:40,0.613,0.910,0.574,1.099,0.785,0.369,0.635,0.592,�k�k��,2.2,��
2021/08/30,09:50,0.611,0.909,0.576,1.098,0.784,0.368,0.636,0.589,�k��,1.7,��
2021/08/30,10:00,0.612,0.915,0.576,1.098,0.783,0.369,0.637,0.590,-,CALM,��
2021/08/30,10:10,0.612,0.911,0.574,1.099,0.783,0.368,0.634,0.591,���쐼,1.2,��
2021/08/30,10:20,0.613,0.913,0.574,1.100,0.782,0.369,0.636,0.591,��,2.0,��
2021/08/30,10:30,0.613,0.910,0.575,1.097,0.783,0.369,0.634,0.591,��쓌,1.7,��
2021/08/30,10:40,0.613,0.909,0.577,1.101,0.784,0.368,0.634,0.590,��쐼,1.7,��
2021/08/30,10:50,0.611,0.911,0.577,1.100,0.784,0.368,0.634,0.591,�쐼,1.5,��
2021/08/30,11:00,0.612,0.911,0.577,1.100,0.783,0.367,0.635,0.591,��,2.2,��
2021/08/30,11:10,0.613,0.908,0.577,1.103,0.785,0.369,0.635,0.589,��쓌,1.9,��
2021/08/30,11:20,0.612,0.911,0.577,1.100,0.783,0.368,0.634,0.592,��쓌,2.6,��
2021/08/30,11:30,0.612,0.910,0.576,1.102,0.783,0.368,0.635,0.590,���쓌,1.7,��
2021/08/30,11:40,0.614,0.913,0.576,1.103,0.784,0.367,0.636,0.590,��쓌,2.0,��
2021/08/30,11:50,0.613,0.918,0.574,1.102,0.783,0.368,0.634,0.591,��쓌,2.6,��
2021/08/30,12:00,0.614,0.913,0.578,1.102,0.785,0.369,0.635,0.593,��,2.0,��
2021/08/30,12:10,0.614,0.915,0.577,1.104,0.784,0.368,0.635,0.590,��쓌,1.9,��
2021/08/30,12:20,0.613,0.910,0.576,1.101,0.786,0.368,0.635,0.591,��쐼,1.5,��
2021/08/30,12:30,0.615,0.916,0.577,1.102,0.783,0.368,0.635,0.592,��,1.5,��
2021/08/30,12:40,0.614,0.915,0.577,1.103,0.785,0.367,0.634,0.592,�쓌,2.2,��
2021/08/30,12:50,0.614,0.914,0.578,1.101,0.785,0.368,0.634,0.590,��쓌,4.1,��
2021/08/30,13:00,0.615,0.916,0.577,1.103,0.788,0.370,0.636,0.591,��쓌,3.0,��
2021/08/30,13:10,0.616,0.915,0.578,1.101,0.786,0.369,0.634,0.591,�쓌,0.9,��
2021/08/30,13:20,0.613,0.914,0.578,1.101,0.785,0.369,0.633,0.590,-,CALM,��
2021/08/30,13:30,0.614,0.914,0.579,1.104,0.786,0.369,0.634,0.590,�쓌,0.6,��
2021/08/30,13:40,0.614,0.914,0.577,1.105,0.786,0.371,0.633,0.592,�쓌,1.2,��
2021/08/30,13:50,0.613,0.913,0.578,1.101,0.786,0.369,0.636,0.590,��,1.1,��
2021/08/30,14:00,0.612,0.913,0.576,1.104,0.786,0.370,0.635,0.594,��쓌,1.2,��
2021/08/30,14:10,0.611,0.915,0.578,1.103,0.787,0.370,0.637,0.591,��,2.8,��
2021/08/30,14:20,0.613,0.913,0.577,1.103,0.785,0.368,0.636,0.589,��쓌,3.5,��
2021/08/30,14:30,0.613,0.915,0.577,1.103,0.787,0.369,0.636,0.591,��쓌,4.5,��
2021/08/30,14:40,0.613,0.914,0.576,1.104,0.786,0.368,0.634,0.592,��쓌,3.3,��
2021/08/30,14:50,0.612,0.915,0.578,1.104,0.787,0.368,0.636,0.590,��,2.3,��
2021/08/30,15:00,0.613,0.917,0.577,1.106,0.788,0.370,0.635,0.591,�쐼,2.0,��
2021/08/30,15:10,0.613,0.917,0.577,1.104,0.790,0.369,0.634,0.592,��쐼,2.0,��
2021/08/30,15:20,0.615,0.913,0.577,1.104,0.786,0.368,0.635,0.592,��,1.7,��
2021/08/30,15:30,0.615,0.916,0.576,1.105,0.788,0.369,0.635,0.590,�k��,2.8,��
2021/08/30,15:40,0.614,0.914,0.575,1.104,0.788,0.368,0.636,0.592,�k,5.0,��
2021/08/30,15:50,0.615,0.915,0.577,1.105,0.788,0.367,0.635,0.591,�k�k��,4.6,��
2021/08/30,16:00,0.614,0.914,0.578,1.103,0.790,0.368,0.635,0.592,�k�k��,5.4,��
2021/08/30,16:10,0.614,0.914,0.577,1.106,0.788,0.367,0.635,0.589,�k,4.8,��
2021/08/30,16:20,0.613,0.916,0.577,1.103,0.786,0.368,0.635,0.590,�k,4.6,��
2021/08/30,16:30,0.613,0.914,0.577,1.103,0.786,0.368,0.635,0.591,�k,5.7,��
2021/08/30,16:40,0.614,0.912,0.577,1.103,0.786,0.366,0.634,0.590,�k,5.7,��
2021/08/30,16:50,0.614,0.915,0.576,1.106,0.786,0.368,0.634,0.591,�k�k��,5.6,��
2021/08/30,17:00,0.613,0.915,0.576,1.106,0.787,0.367,0.635,0.590,�k�k��,5.9,��
2021/08/30,17:10,0.612,0.915,0.577,1.102,0.788,0.367,0.636,0.592,�k�k��,5.0,��
2021/08/30,17:20,0.613,0.916,0.578,1.103,0.787,0.368,0.633,0.592,�k�k��,2.2,��
2021/08/30,17:30,0.613,0.916,0.576,1.103,0.786,0.367,0.635,0.591,���k��,2.8,��
2021/08/30,17:40,0.612,0.913,0.577,1.103,0.788,0.366,0.635,0.593,�k��,2.0,��
2021/08/30,17:50,0.611,0.914,0.578,1.104,0.785,0.368,0.634,0.591,�k��,2.5,��
2021/08/30,18:00,0.612,0.912,0.576,1.106,0.787,0.367,0.635,0.591,���k��,1.2,��
2021/08/30,18:10,0.612,0.914,0.576,1.107,0.787,0.366,0.635,0.591,�k��,1.5,��
2021/08/30,18:20,0.611,0.914,0.579,1.104,0.788,0.368,0.635,0.592,���k��,0.8,��
2021/08/30,18:30,0.612,0.914,0.577,1.105,0.787,0.367,0.635,0.593,���k��,0.6,��
2021/08/30,18:40,0.612,0.917,0.578,1.105,0.787,0.369,0.635,0.591,-,CALM,��
2021/08/30,18:50,0.612,0.915,0.578,1.105,0.789,0.368,0.633,0.591,-,CALM,��
2021/08/30,19:00,0.614,0.917,0.578,1.107,0.787,0.368,0.635,0.593,�k��,0.9,��
2021/08/30,19:10,0.614,0.919,0.579,1.105,0.788,0.367,0.634,0.591,�k�k��,1.1,��
2021/08/30,19:20,0.612,0.917,0.579,1.104,0.790,0.368,0.636,0.592,�k�k��,1.2,��
2021/08/30,19:30,0.614,0.918,0.577,1.105,0.787,0.369,0.635,0.593,�k�k��,1.9,��
2021/08/30,19:40,0.614,0.915,0.577,1.105,0.789,0.368,0.636,0.592,�k�k��,1.5,��
2021/08/30,19:50,0.614,0.917,0.578,1.105,0.787,0.369,0.635,0.594,�k,1.5,��
2021/08/30,20:00,0.613,0.919,0.578,1.105,0.787,0.368,0.636,0.593,�k�k��,1.9,��
2021/08/30,20:10,0.613,0.918,0.579,1.105,0.789,0.369,0.635,0.592,�k�k��,2.6,��
2021/08/30,20:20,0.612,0.918,0.579,1.106,0.788,0.369,0.637,0.593,�k�k��,1.1,��
2021/08/30,20:30,0.613,0.917,0.578,1.106,0.788,0.369,0.634,0.593,�k,0.9,��
2021/08/30,20:40,0.613,0.917,0.578,1.106,0.787,0.368,0.635,0.592,�k�k��,0.8,��
2021/08/30,20:50,0.613,0.918,0.579,1.104,0.787,0.369,0.636,0.593,�k�k��,1.1,��
2021/08/30,21:00,0.614,0.917,0.577,1.106,0.788,0.368,0.635,0.593,�k�k��,0.8,��
2021/08/30,21:10,0.612,0.916,0.578,1.106,0.789,0.368,0.635,0.592,�k,2.0,�L
2021/08/30,21:20,0.615,0.916,0.580,1.106,0.788,0.369,0.635,0.593,�k,2.9,�L
2021/08/30,21:30,0.613,0.916,0.578,1.104,0.787,0.368,0.636,0.593,�k�k��,3.6,��
2021/08/30,21:40,0.615,0.917,0.577,1.107,0.789,0.368,0.635,0.592,�k�k��,3.8,��
2021/08/30,21:50,0.613,0.920,0.579,1.107,0.789,0.367,0.635,0.594,�k,3.1,��
2021/08/30,22:00,0.614,0.918,0.579,1.106,0.789,0.369,0.636,0.592,�k�k��,2.5,��
2021/08/30,22:10,0.615,0.918,0.578,1.105,0.790,0.368,0.635,0.592,�k�k��,2.3,��
2021/08/30,22:20,0.613,0.918,0.579,1.105,0.790,0.368,0.636,0.593,�k,2.8,��
2021/08/30,22:30,0.612,0.918,0.578,1.107,0.788,0.367,0.635,0.592,�k,2.9,��
2021/08/30,22:40,0.614,0.918,0.577,1.105,0.790,0.368,0.635,0.592,�k,1.1,��
2021/08/30,22:50,0.613,0.918,0.578,1.108,0.789,0.368,0.636,0.593,�쐼,1.2,��
2021/08/30,23:00,0.613,0.918,0.580,1.106,0.788,0.367,0.636,0.593,��,2.6,��
2021/08/30,23:10,0.611,0.918,0.578,1.106,0.789,0.367,0.633,0.592,-,CALM,��
2021/08/30,23:20,0.614,0.920,0.579,1.106,0.790,0.367,0.635,0.590,�k��,1.2,��
2021/08/30,23:30,0.612,0.919,0.578,1.105,0.788,0.368,0.634,0.591,�k��,1.2,��
2021/08/30,23:40,0.614,0.918,0.580,1.107,0.789,0.368,0.636,0.592,�k��,1.5,��
2021/08/30,23:50,0.613,0.918,0.580,1.107,0.789,0.368,0.635,0.591,�k�k��,0.6,��
